Flag for U.S.A. Weather past 2 weeks in Savannah, Georgia, U.S.A.

Now
83 °F

Sunny.


Feels Like: 96 °F
Forecast: 75 / 89 °F
Wind: 3 mph from North

Location: Hunter U. S. Army Airfield

Current Time: Sep 4, 2015 at 11:00:31 AM

Latest Report: Sep 4, 2015 at 9:58 AM


Visibility: 10 mi

Pressure: 29.96 "Hg

Humidity: 92%

Dew point: 81 °F

Location of SavannahLocation

Historic Weather in Savannah — Graph

°F

Savannah temperature yesterday

Maximum temperature yesterday: 88 °F (at 2:58 PM)
Minimum temperature yesterday: 75 °F (at 7:58 AM)
Average temperature yesterday: 80 °F

Past Weeks' High & Low Weather Summary

 TemperatureHumidityPressure
High94 °F (Aug 21, 2:58 PM)100% (Aug 21, 12:58 AM)30.17 "Hg (Aug 21, 12:58 AM)
Low71 °F (Aug 26, 6:58 AM)52% (Aug 26, 1:58 PM)29.83 "Hg (Aug 25, 3:58 PM)
Average79 °F92%29.99 "Hg
* Reported Aug 20 9:58 AM — Sep 4 9:58 AM, Savannah, Weather by CustomWeather, © 2015

Note: Actual official high and low records may vary slightly from our data, if they occured in-between our weather recording intervals... More about our weather records

Advertising

Savannah weather history for previous 24 hours

 ConditionsComfort  
Time TempWeatherWind HumidityBarometerVisibility
9:58 AM
Fri, Sep 4
83 °FSunny.3 mph92%29.96 "Hg10 mi
8:58 AM79 °FSunny.5 mph100%29.96 "Hg10 mi
7:58 AM77 °FClear.3 mph100%29.95 "Hg10 mi
6:58 AM76 °FClear.3 mph100%29.93 "Hg10 mi
5:58 AM76 °FClear.1 mph100%29.92 "Hg10 mi
4:58 AM77 °FClear.2 mph100%29.91 "Hg10 mi
3:58 AM77 °FPassing clouds.No wind100%29.91 "Hg10 mi
2:58 AM78 °FPartly cloudy.3 mph100%29.91 "Hg10 mi
1:58 AM79 °FOvercast.2 mph100%29.91 "Hg10 mi
12:58 AM79 °FPassing clouds.5 mph100%29.91 "Hg10 mi
11:58 PM
Thu, Sep 3
79 °FOvercast.2 mph100%29.91 "Hg10 mi
10:58 PM79 °FPartly cloudy.No wind100%29.91 "Hg10 mi
9:58 PM80 °FPassing clouds.2 mph100%29.91 "Hg10 mi
8:58 PM80 °FPassing clouds.5 mph99%29.90 "Hg10 mi
7:58 PM82 °FScattered clouds.3 mph96%29.88 "Hg10 mi
6:58 PM84 °FSunny.3 mph89%29.88 "Hg10 mi
5:58 PM85 °FSunny.2 mph88%29.88 "Hg10 mi
4:58 PM84 °FScattered clouds.6 mph88%29.89 "Hg10 mi
3:58 PM88 °FPassing clouds.3 mph71%29.90 "Hg10 mi
2:58 PM88 °FPassing clouds.6 mph72%29.92 "Hg10 mi
1:58 PM87 °FScattered clouds.7 mph77%29.93 "Hg10 mi
12:58 PM87 °FBroken clouds.8 mph78%29.95 "Hg10 mi
12:03 PM84 °FScattered clouds.6 mph84%29.95 "Hg10 mi
Weather by CustomWeather, © 2015

See weather overviewHow to use our weather pages